Regional Weather Roundup
Issued by NWS

Home | Current Version | Previous Version | Text Only | Print | Product List | Glossary On
Versions: 1 2 3 4 5 6 7 8 9 10 11 12 13 14 15 16 17 18 19 20 21 22 23 24 25 26 27 28 29 30 31 32 33 34 35 36 37 38 39 40 41 42 43 44 45 46 47 48 49 50
000
ASUS44 KJAN 010410
RWRMS

MISSISSIPPI HOURLY WEATHER ROUNDUP
NATIONAL WEATHER SERVICE JACKSON MS
1100 PM CDT TUE SEP 30 2014

NOTE: "FAIR: INDICATES FEW OR NO CLOUDS BELOW 12,000 FEET WITH NO
SIGNIFICANT WEATHER AND/OR OBSTRUCTIONS TO VISIBILITY.

MSZ001>002-007>008-010>013-018>021-025>028-034>036-010500-
NORTHWEST MISSISSIPPI

CITY           SKY/WX    TMP DP  RH WIND       PRES   REMARKS
CLARKSDALE     FAIR      68  63  83 CALM      29.88S
CLEVELAND      FAIR      76  66  72 SE7       29.87S
GREENWOOD      PTCLDY    71  65  81 CALM      29.88R
GREENVILLE     CLEAR     73  59  61 SE5       29.86S
GRENADA        FAIR      64  63  94 CALM      29.90R
OLIVE BRANCH   CLEAR     66  66 100 CALM      29.90S
OXFORD         FAIR      64  63  94 SE3       29.92S
TUNICA         PTCLDY    68  63  83 CALM      29.89S
$$

MSZ003>006-009-014>017-022>024-029>033-037>039-010500-
NORTHEAST MISSISSIPPI

CITY           SKY/WX    TMP DP  RH WIND       PRES   REMARKS
COLUMBUS AFB   CLEAR     65  64  97 W1        29.90S
CORINTH          N/A     63  61  94 CALM      29.91S
GOLDN TRIANGLE CLEAR     66  57  72 CALM      29.90R
STARKVILLE     FAIR      63  61  94 CALM      29.91R
TUPELO         PTCLDY    67  62  84 CALM      29.90S
$$

MSZ040-058-010500-
CENTRAL MISSISSIPPI

CITY           SKY/WX    TMP DP  RH WIND       PRES   REMARKS
JACKSON INTL   CLEAR     71  65  81 S6        29.88S
JACKSON HAWKNS CLEAR     74  65  73 CALM      29.89S
MERIDIAN KEY   CLEAR     65  62  90 CALM      29.90S
MERIDIAN NAS   CLEAR     66  61  84 CALM      29.91R
RAYMOND        FAIR      68  64  88 CALM      29.89R
VICKSBURG      CLEAR     75  66  73 SE5       29.87S
$$

MSZ059>079-010500-
SOUTH MISSISSIPPI

CITY           SKY/WX    TMP DP  RH WIND       PRES   REMARKS
BROOKHAVEN     FAIR      73  70  88 CALM      29.92R
COLUMBIA       FAIR      70  68  94 CALM      29.89S
HATTIESBURG    CLEAR     71  68  90 CALM      29.90S
MCCOMB         CLEAR     74  70  87 SE5       29.90S
NATCHEZ        CLEAR     73  70  88 SE6       29.88S
PINE BELT      CLEAR    N/A N/A N/A CALM      29.90F
$$

MSZ080>082-010500-
COASTAL MISSISSIPPI

CITY           SKY/WX    TMP DP  RH WIND       PRES   REMARKS
BILOXI         CLEAR     76  70  81 E3        29.89S
PASCAGOULA     CLEAR     67  66  97 CALM      29.90R FOG
GULFPORT       PTCLDY    76  70  82 E7        29.88S
$$


USA.gov is the U.S. government's official web portal to all federal, state and local government web resources and services.